Weather History for Cape Cod CGAS, MA

Change the Weather History Date:

Friday, May 17, 2013

  Actual Average Record
Temperature  
Mean Temperature 56 °F -  
Max Temperature 63 °F 60 °F 71 °F (2014)
Min Temperature 46 °F 44 °F 39 °F (2003)
Degree Days  
Heating Degree Days 10    
Growing Degree Days 6 (Base 50)    
Moisture  
Dew Point 42 °F    
Average Humidity 62    
Maximum Humidity 93    
Minimum Humidity 29    
Precipitation  
Precipitation 0.00 in - - ()
Sea Level Pressure  
Sea Level Pressure 30.02 in    
Wind  
Wind Speed 7 mph (NNE)    
Max Wind Speed 18 mph    
Max Gust Speed 24 mph    
Visibility 10 miles    
Events      
Averages and records for this station are not official NWS values.
T = Trace of Precipitation, MM = Missing Value Source: NWS Daily Summary

Daily Weather History Graph

Daily Weather History Graph

Search for Another Location

Airport:

Trip Planner

Search our weather history database for the weather conditions in past years. The results will help you decide how hot, cold, wet, or windy it might be!

Date:

Astronomy

May. 17, 2013 Rise Set
Actual Time 5:20 AM EDT 7:57 PM EDT
Civil Twilight 4:48 AM EDT 8:29 PM EDT
Nautical Twilight 4:08 AM EDT 9:09 PM EDT
Astronomical Twilight 3:23 AM EDT 9:54 PM EDT
Moon 11:52 AM EDT (5/17) 12:46 AM EDT (5/17)
Length of Visible Light 15h 40m
Length of Day
14h 36m
Waxing Crescent, 45% of the Moon is Illuminated
May 17
Waxing Crescent
May 18
First Quarter
May 25
Full
May 31
Last Quarter
Jun 8
New

Hourly Weather History & Observations

Time (EDT) Temp. Dew Point Humidity Pressure Visibility Wind Dir Wind Speed Gust Speed Precip Events Conditions
12:15 AM 53.6 °F 48.2 °F 82% 29.80 in 10.0 mi WSW 4.6 mph - N/A   Clear
12:35 AM 50.0 °F 46.4 °F 87% 29.80 in 10.0 mi West 3.5 mph - N/A   Scattered Clouds
12:55 AM 51.8 °F 46.4 °F 82% 29.80 in 10.0 mi West 4.6 mph - N/A   Mostly Cloudy
1:15 AM 50.0 °F 46.4 °F 87% 29.80 in 10.0 mi NW 8.1 mph - N/A   Partly Cloudy
1:35 AM 55.4 °F 46.4 °F 72% 29.80 in 10.0 mi NW 6.9 mph - N/A   Clear
1:55 AM 57.2 °F 46.4 °F 67% 29.81 in 10.0 mi North 6.9 mph - N/A   Clear
2:15 AM 57.2 °F 46.4 °F 67% 29.81 in 10.0 mi North 8.1 mph - N/A   Clear
2:35 AM 55.4 °F 46.4 °F 72% 29.82 in 10.0 mi North 9.2 mph - N/A   Clear
2:55 AM 55.4 °F 46.4 °F 72% 29.83 in 10.0 mi NNE 9.2 mph - N/A   Clear
3:15 AM 53.6 °F 46.4 °F 77% 29.84 in 10.0 mi NNE 6.9 mph - N/A   Clear
3:35 AM 53.6 °F 46.4 °F 77% 29.84 in 10.0 mi NNE 8.1 mph - N/A   Clear
3:55 AM 53.6 °F 46.4 °F 77% 29.85 in 10.0 mi North 5.8 mph - N/A   Clear
4:15 AM 51.8 °F 46.4 °F 82% 29.87 in 10.0 mi North 4.6 mph - N/A   Clear
4:35 AM 51.8 °F 46.4 °F 82% 29.88 in 10.0 mi North 4.6 mph - N/A   Clear
4:55 AM 50.0 °F 44.6 °F 82% 29.89 in 10.0 mi NNW 4.6 mph - N/A   Clear
5:15 AM 48.2 °F 44.6 °F 87% 29.90 in 10.0 mi NNW 4.6 mph - N/A   Clear
5:35 AM 50.0 °F 44.6 °F 82% 29.90 in 10.0 mi NNW 5.8 mph - N/A   Clear
5:55 AM 50.0 °F 44.6 °F 82% 29.91 in 10.0 mi NNW 5.8 mph - N/A   Clear
6:15 AM 51.8 °F 42.8 °F 71% 29.93 in 10.0 mi NNW 6.9 mph - N/A   Clear
6:35 AM 53.6 °F 41.0 °F 62% 29.93 in 10.0 mi North 4.6 mph - N/A   Clear
6:55 AM 55.4 °F 41.0 °F 58% 29.94 in 10.0 mi North 4.6 mph - N/A   Clear
7:15 AM 57.2 °F 41.0 °F 55% 29.95 in 10.0 mi NNW 6.9 mph - N/A   Clear
7:35 AM 57.2 °F 41.0 °F 55% 29.96 in 10.0 mi North 10.4 mph - N/A   Clear
7:55 AM 57.2 °F 41.0 °F 55% 29.97 in 10.0 mi North 10.4 mph - N/A   Clear
8:15 AM 57.2 °F 41.0 °F 55% 29.97 in 10.0 mi North 11.5 mph 17.3 mph N/A   Clear
8:35 AM 57.2 °F 41.0 °F 55% 29.97 in 10.0 mi NNW 10.4 mph - N/A   Clear
8:55 AM 59.0 °F 41.0 °F 51% 29.97 in 10.0 mi North 6.9 mph - N/A   Clear
9:15 AM 59.0 °F 42.8 °F 55% 29.97 in 10.0 mi NE 10.4 mph 16.1 mph N/A   Clear
9:35 AM 59.0 °F 42.8 °F 55% 29.98 in 10.0 mi North 10.4 mph - N/A   Clear
9:55 AM 59.0 °F 41.0 °F 51% 29.99 in 10.0 mi NNE 9.2 mph - N/A   Scattered Clouds
10:15 AM 59.0 °F 41.0 °F 51% 29.99 in 10.0 mi NNE 10.4 mph 16.1 mph N/A   Scattered Clouds
10:35 AM 59.0 °F 39.2 °F 48% 30.00 in 10.0 mi NNE 11.5 mph 16.1 mph N/A   Partly Cloudy
10:55 AM 60.8 °F 39.2 °F 45% 30.01 in 10.0 mi NNE 13.8 mph 24.2 mph N/A   Clear
11:15 AM 59.0 °F 39.2 °F 48% 30.02 in 10.0 mi NE 15.0 mph 20.7 mph N/A   Clear
11:35 AM 59.0 °F 39.2 °F 48% 30.02 in 10.0 mi NNE 12.7 mph 17.3 mph N/A   Clear
11:55 AM 60.8 °F 39.2 °F 45% 30.02 in 10.0 mi NE 15.0 mph 20.7 mph N/A   Clear
12:15 PM 59.0 °F 39.2 °F 48% 30.02 in 10.0 mi NE 10.4 mph 19.6 mph N/A   Clear
12:35 PM 62.6 °F 39.2 °F 42% 30.03 in 10.0 mi NE 16.1 mph 20.7 mph N/A   Clear
12:55 PM 62.6 °F 39.2 °F 42% 30.03 in 10.0 mi NE 12.7 mph 18.4 mph N/A   Clear
1:15 PM 62.6 °F 39.2 °F 42% 30.03 in 10.0 mi NE 13.8 mph 19.6 mph N/A   Clear
1:35 PM 62.6 °F 39.2 °F 42% 30.04 in 10.0 mi ENE 15.0 mph 19.6 mph N/A   Clear
1:55 PM 62.6 °F 39.2 °F 42% 30.04 in 10.0 mi ENE 12.7 mph - N/A   Partly Cloudy
2:15 PM 62.6 °F 37.4 °F 39% 30.05 in 10.0 mi ENE 10.4 mph - N/A   Mostly Cloudy
2:35 PM 62.6 °F 37.4 °F 39% 30.05 in 10.0 mi NE 12.7 mph 16.1 mph N/A   Mostly Cloudy
2:55 PM 62.6 °F 37.4 °F 39% 30.05 in 10.0 mi ENE 3.5 mph - N/A   Overcast
3:15 PM 62.6 °F 39.2 °F 42% 30.05 in 10.0 mi NE 11.5 mph - N/A   Overcast
3:35 PM 62.6 °F 39.2 °F 42% 30.06 in 10.0 mi NNE 8.1 mph - N/A   Overcast
3:55 PM 62.6 °F 39.2 °F 42% 30.07 in 10.0 mi North 10.4 mph - N/A   Scattered Clouds
4:15 PM 62.6 °F 39.2 °F 42% 30.07 in 10.0 mi NE 12.7 mph 17.3 mph N/A   Partly Cloudy
4:35 PM 62.6 °F 39.2 °F 42% 30.08 in 10.0 mi NE 10.4 mph - N/A   Scattered Clouds
4:55 PM 60.8 °F 39.2 °F 45% 30.09 in 10.0 mi ENE 3.5 mph - N/A   Partly Cloudy
5:15 PM 60.8 °F 39.2 °F 45% 30.10 in 10.0 mi NNE 5.8 mph - N/A   Clear
5:35 PM 60.8 °F 39.2 °F 45% 30.11 in 10.0 mi ENE 3.5 mph - N/A   Clear
5:55 PM 60.8 °F 39.2 °F 45% 30.11 in 10.0 mi Calm Calm - N/A   Clear
6:15 PM 60.8 °F 39.2 °F 45% 30.12 in 10.0 mi Calm Calm - N/A   Clear
6:35 PM 60.8 °F 39.2 °F 45% 30.13 in 10.0 mi Calm Calm - N/A   Clear
6:55 PM 59.0 °F 46.4 °F 63% 30.14 in 10.0 mi South 9.2 mph - N/A   Clear
7:15 PM 57.2 °F 46.4 °F 67% 30.14 in 10.0 mi South 9.2 mph - N/A   Scattered Clouds
7:35 PM 55.4 °F 44.6 °F 67% 30.15 in 10.0 mi South 6.9 mph - N/A   Mostly Cloudy
7:55 PM 53.6 °F 44.6 °F 72% 30.16 in 10.0 mi SSE 6.9 mph - N/A   Mostly Cloudy
8:15 PM 53.6 °F 44.6 °F 72% 30.17 in 10.0 mi SSE 3.5 mph - N/A   Scattered Clouds
8:35 PM 53.6 °F 44.6 °F 72% 30.18 in 10.0 mi South 4.6 mph - N/A   Partly Cloudy
8:55 PM 51.8 °F 44.6 °F 76% 30.19 in 10.0 mi SE 3.5 mph - N/A   Clear
9:15 PM 50.0 °F 44.6 °F 82% 30.21 in 10.0 mi ESE 3.5 mph - N/A   Partly Cloudy
9:35 PM 48.2 °F 42.8 °F 82% 30.21 in 10.0 mi Calm Calm - N/A   Partly Cloudy
9:55 PM 50.0 °F 44.6 °F 82% 30.22 in 10.0 mi Calm Calm - N/A   Clear
10:15 PM 50.0 °F 44.6 °F 82% 30.22 in 10.0 mi Calm Calm - N/A   Scattered Clouds
10:35 PM 50.0 °F 44.6 °F 82% 30.22 in 10.0 mi SSW 3.5 mph - N/A   Overcast
10:55 PM 50.0 °F 46.4 °F 87% 30.22 in 10.0 mi WSW 3.5 mph - N/A   Overcast
11:15 PM 48.2 °F 44.6 °F 87% 30.23 in 10.0 mi SW 3.5 mph - N/A   Scattered Clouds
11:35 PM 48.2 °F 44.6 °F 87% 30.23 in 10.0 mi Calm Calm - N/A   Clear
11:55 PM 46.4 °F 44.6 °F 93% 30.23 in 10.0 mi Calm Calm - N/A   Clear